This is the latest recevied weather packets stored in our database for station/object vk4zu-13. If no packets are shown the sender has not sent any weather packets the latest 10 day(s).
| Time | Temp. | Humidity | Pressure | Rain* | Wind** | Luminosity | Snow |
|---|---|---|---|---|---|---|---|
| 1778214015 | 23.33° C | 27% | 1017.2 hPa | 0 mm | - | 545 W/m² | - |
| 1778213945 | 23.33° C | 29% | 1017.2 hPa | 0 mm | - | 550 W/m² | - |
| 1778213883 | 23.33° C | 27% | 1017.2 hPa | 0 mm | - | 550 W/m² | - |
| 1778213819 | 23.33° C | 27% | 1017 hPa | 0 mm | - | 552 W/m² | - |
| 1778213766 | 23.33° C | 27% | 1017.1 hPa | 0 mm | - | 555 W/m² | - |
| 1778213690 | 23.33° C | 25% | 1017.1 hPa | 0 mm | - | 557 W/m² | - |
| 1778213620 | 23.33° C | 30% | 1017.1 hPa | 0 mm | - | 561 W/m² | - |
| 1778213560 | 23.33° C | 25% | 1017.1 hPa | 0 mm | - | 564 W/m² | - |
| 1778213500 | 23.33° C | 29% | 1017.1 hPa | 0 mm | - | 570 W/m² | - |
| 1778213428 | 23.33° C | 27% | 1017.1 hPa | 0 mm | - | 573 W/m² | - |
| 1778213360 | 22.78° C | 28% | 1017.1 hPa | 0 mm | - | 580 W/m² | - |
| 1778213289 | 22.78° C | 33% | 1017 hPa | 0 mm | - | 578 W/m² | - |
| 1778213221 | 22.78° C | 25% | 1017.1 hPa | 0 mm | - | 577 W/m² | - |
| 1778213154 | 22.78° C | 28% | 1017.1 hPa | 0 mm | - | 578 W/m² | - |
| 1778213085 | 22.78° C | 25% | 1017.2 hPa | 0 mm | - | 587 W/m² | - |
| 1778213017 | 23.33° C | 28% | 1017.2 hPa | 0 mm | - | 592 W/m² | - |
| 1778212951 | 23.33° C | 29% | 1017.1 hPa | 0 mm | - | 594 W/m² | - |
| 1778212877 | 22.78° C | 30% | 1017.2 hPa | 0 mm | - | 592 W/m² | - |
| 1778212809 | 22.78° C | 25% | 1017.2 hPa | 0 mm | - | 592 W/m² | - |
| 1778212747 | 22.78° C | 27% | 1017.2 hPa | 0 mm | - | 596 W/m² | - |
| 1778212685 | 22.78° C | 26% | 1017.1 hPa | 0 mm | - | 598 W/m² | - |
| 1778212628 | 22.78° C | 27% | 1017.1 hPa | 0 mm | - | 601 W/m² | - |
| 1778212565 | 22.78° C | 28% | 1017.2 hPa | 0 mm | - | 603 W/m² | - |
| 1778212481 | 22.78° C | 30% | 1017.3 hPa | 0 mm | - | 605 W/m² | - |
| 1778212411 | 22.78° C | 25% | 1017.3 hPa | 0 mm | - | 610 W/m² | - |
* Rain latest hour (hover to see other rain measurements)
** Current wind speed in m/s (hover to see current wind gust speed)